| time (UTC) | temp F | wind direction | speed knots | gust knots | rain 1hr in | rain 24hr in | rain mn in | humidity % | barometer mb |
| 20260504081512 | 49 | 203 | 0.0 | 0.0 | 0.00 | 0.00 | 0.00 | 69 | 1002.0 |
| 20260504050104 | 50 | 220 | 0.0 | 0.0 | 0.00 | 0.00 | 0.00 | 53 | 1002.0 |
| 20260504044557 | 51 | 228 | 0.0 | 0.0 | 0.00 | 0.00 | 0.00 | 52 | 1001.9 |
| 20260504043053 | 51 | 228 | 0.0 | 0.0 | 0.00 | 0.00 | 0.00 | 52 | 1001.7 |
| 20260504041549 | 50 | 230 | 0.0 | 0.0 | 0.00 | 0.00 | 0.00 | 52 | 1001.6 |
| 20260504040051 | 50 | 245 | 0.0 | 0.0 | 0.00 | 0.00 | 0.00 | 52 | 1001.7 |
| 20260504034645 | 51 | 226 | 0.0 | 0.0 | 0.00 | 0.00 | 0.00 | 52 | 1001.6 |
| 20260504033045 | 51 | 224 | 0.0 | 0.0 | 0.00 | 0.00 | 0.00 | 51 | 1001.5 |
| 20260504031547 | 51 | 226 | 0.0 | 0.0 | 0.00 | 0.00 | 0.00 | 51 | 1001.5 |
| 20260504030044 | 51 | 226 | 0.0 | 0.0 | 0.00 | 0.00 | 0.00 | 51 | 1001.4 |
| 20260504024600 | 51 | 223 | 0.0 | 0.0 | 0.00 | 0.00 | 0.00 | 51 | 1001.5 |
| 20260504023045 | 51 | 219 | 0.0 | 0.0 | 0.00 | 0.00 | 0.00 | 50 | 1001.6 |
| 20260504021543 | 52 | 208 | 0.0 | 0.0 | 0.00 | 0.00 | 0.00 | 49 | 1001.7 |
| 20260504020044 | 52 | 222 | 0.0 | 0.0 | 0.00 | 0.00 | 0.00 | 49 | 1001.6 |
| 20260504014544 | 53 | 220 | 0.0 | 0.0 | 0.00 | 0.00 | 0.00 | 48 | 1001.4 |
| 20260504013042 | 53 | 221 | 0.0 | 0.0 | 0.00 | 0.00 | 0.00 | 46 | 1001.4 |
| 20260504011541 | 54 | 222 | 0.0 | 0.0 | 0.00 | 0.00 | 0.00 | 46 | 1001.1 |
| 20260504010041 | 54 | 220 | 0.0 | 0.0 | 0.00 | 0.00 | 0.00 | 45 | 1001.1 |
| 20260504004546 | 55 | 228 | 0.0 | 0.0 | 0.00 | 0.00 | 0.00 | 45 | 1000.8 |
| 20260504003046 | 55 | 216 | 0.0 | 0.0 | 0.00 | 0.00 | 0.00 | 44 | 1000.6 |
| 20260504001543 | 56 | 224 | 0.0 | 0.0 | 0.00 | 0.00 | 0.00 | 42 | 1000.4 |
| 20260504000104 | 57 | 261 | 0.0 | 0.0 | 0.00 | 0.00 | 0.00 | 41 | 1000.4 |
| 20260503234550 | 57 | 228 | 0.0 | 0.0 | 0.00 | 0.00 | 0.00 | 40 | 1000.3 |
| 20260503233039 | 58 | 266 | 0.0 | 0.0 | 0.00 | 0.00 | 0.00 | 39 | 1000.2 |
| 20260503231538 | 58 | 256 | 0.0 | 0.0 | 0.00 | 0.00 | 0.00 | 39 | 1000.0 |
| 20260503230042 | 58 | 235 | 0.0 | 0.0 | 0.00 | 0.00 | 0.00 | 39 | 1000.0 |
| 20260503224537 | 59 | 273 | 0.0 | 0.0 | 0.00 | 0.00 | 0.00 | 38 | 1000.0 |
| 20260503223039 | 59 | 255 | 0.0 | 0.0 | 0.00 | 0.00 | 0.00 | 38 | 999.9 |
| 20260503221547 | 59 | 249 | 0.0 | 0.0 | 0.00 | 0.00 | 0.00 | 37 | 1000.0 |
| 20260503220038 | 58 | 268 | 0.0 | 0.0 | 0.00 | 0.00 | 0.00 | 36 | 1000.1 |
| 20260503214536 | 59 | 297 | 0.0 | 0.0 | 0.00 | 0.00 | 0.00 | 37 | 1000.0 |
| 20260503213033 | 58 | 329 | 0.0 | 20.0 | 0.00 | 0.00 | 0.00 | 35 | 1000.0 |
| 20260503211531 | 58 | 230 | 0.0 | 0.0 | 0.00 | 0.00 | 0.00 | 36 | 999.9 |
| 20260503210031 | 58 | 320 | 0.0 | 0.0 | 0.00 | 0.00 | 0.00 | 37 | 1000.1 |
| 20260503204531 | 57 | 328 | 0.0 | 0.0 | 0.00 | 0.00 | 0.00 | 39 | 1000.0 |
| 20260503203040 | 58 | 328 | 0.0 | 0.0 | 0.00 | 0.00 | 0.00 | 38 | 1000.1 |
| 20260503201534 | 57 | 351 | 0.0 | 0.0 | 0.00 | 0.00 | 0.00 | 40 | 1000.3 |
| 20260503200026 | 57 | 300 | 0.0 | 8.7 | 0.00 | 0.00 | 0.00 | 39 | 1000.4 |
| 20260503194525 | 56 | 276 | 0.0 | 0.9 | 0.00 | 0.00 | 0.00 | 39 | 1000.4 |
| 20260503193024 | 56 | 336 | 0.0 | 12.2 | 0.00 | 0.00 | 0.00 | 38 | 1000.6 |
| 20260503191523 | 56 | 313 | 0.0 | 0.0 | 0.00 | 0.00 | 0.00 | 38 | 1000.7 |
| 20260503190035 | 56 | 351 | 0.0 | 0.0 | 0.00 | 0.00 | 0.00 | 41 | 1000.8 |
| 20260503184522 | 55 | 300 | 0.0 | 0.9 | 0.00 | 0.00 | 0.00 | 38 | 1000.8 |
| 20260503183025 | 55 | 314 | 0.0 | 0.9 | 0.00 | 0.00 | 0.00 | 40 | 1000.9 |
| 20260503181518 | 54 | 205 | 0.0 | 7.8 | 0.00 | 0.00 | 0.00 | 39 | 1001.2 |
| 20260503180024 | 54 | 320 | 1.7 | 13.9 | 0.00 | 0.00 | 0.00 | 39 | 1001.1 |
| 20260503174516 | 53 | 269 | 0.0 | 3.5 | 0.00 | 0.00 | 0.00 | 40 | 1001.1 |
| 20260503173025 | 53 | 261 | 0.0 | 8.7 | 0.00 | 0.00 | 0.00 | 41 | 1001.4 |
| 20260503171509 | 53 | 334 | 0.9 | 10.4 | 0.00 | 0.00 | 0.00 | 43 | 1001.4 |